Погода в Домнино

Россия / Орловская область     52°47′50″N   36°23′23″E
темп.,
°C
ветер,
м/с
пор.,
м/с
влажн.,
%
обл.,
%
осадки,
мм/ч
давл.,
гПа
погр.,
м
28 ноября, вс
вс2800:00+4ю51298100 0.0 1003358
03:00+5ююз61398100 0.0 1003370
06:00+5зюз5890100 0.0 1004451
09:00+3юз38964 0.0 1006206
12:00+5зюз367896 0.0 1007294
15:00+5ю247863 0.0 1008125
18:00+3ююв3694100 0.0 100998
21:00+4ююв51095100 0.0 1008294
29 ноября, пн
пн2900:00+5юв51192100 0.0 1008383
03:00+4юв51294100 0.0 1006286
06:00+4вюв4997100 0.0 1004208
09:00+4в4799100 0.6 1001156
12:00+5вюв4899100 0.4 999259
15:00+5ююв3899100 0.6 996236
18:00+7юв41099100 0.0 993312
21:00+7в51298100 2.9 986448
30 ноября, вт
вт3000:00+7вюв3699100 7.7 979212
03:00+8юз81496100 11.1 976603
06:00+7зюз61197100 3.2 975555
09:00+1зюз142295100 6.8 9821002
12:00+1зюз132186100 3.4 9871145
15:00+1юз121882100 3.5 9891257
18:000юз10168496 0.1 9901165
21:000зюз9148264 0.4 9901206
1 декабря, ср
ср100:00−2зюз91486100 0.1 991925
03:00−2зюз71296100 0.5 9921030
06:00−2з91382100 1.1 9931079
09:00−2з81384100 1.1 9951044
12:00−2з71183100 0.1 9971055
15:00−2з6108192 0.2 9981104
18:00−3з511865 0.0 999657
21:00−4з59906 0.0 1000559
2 декабря, чт
чт200:00−4з49905 0.0 1002437
03:00−4юз4892100 0.0 1003317
06:00−3ю5129298 0.0 1001453
09:00−1ю71597100 0.5 1000706
12:00+1юз81698100 1.5 1000722
15:00+2юз71598100 1.6 1000541
18:00+2юз71496100 0.0 1002631
21:00+2юз61391100 0.0 1003593